Location: Knowlton
(51.2333°N, 1.2667°E)
Time: 22:54:27
(UTC+00:00)

ZACube-1 - Pass Details

Date: 05 December 2021
Orbit: 582 x 665 km, 97.6° (Epoch: 21 January)

Event Time Altitude Azimuth Distance (km) Brightness Sun altitude
Rises 04:49:17 0° 10° (N) 2,999 ? -26.0°
Reaches altitude 10° 04:51:31 10° 7° (N) 2,090 ? -25.6°
Enters shadow 04:52:42 18° 4° (N) 1,630 ? -25.4°
